DMSP F-4

operational
NORAD ID: 11389 Int'l Des: 1979-050 Owner: SAMSO Country: US
LEOCIRCULARRETROGRADESSO

关于 DMSP F-4

正在加载描述...

实时位置

正在加载3D地球...

即将过境

高度历史

Altitude vs Time

uPlot chart will show altitude changes over time

两行轨道根数

1 11389U 79050A 26071.15267328 .00000214 00000-0 10129-3 0 9996
2 11389 98.6199 26.7954 0012961 67.9931 292.2627 14.29307613361841
Epoch: Mar 12, 2026 • Age: 40 hours

当前状态

高度 798.3 km
速度 7.46 km/s
星下点 52.49°N, 175.28°E
发射日期 Jun 6, 1979
运行时间 46.7 years
类型 other

技术详情

分类 Payload
质量 447.00 kg
干质量 447.00 kg
总质量 1177.00 kg
长度 6.10 m
直径 1.50 m
跨度 6.10 m
形状 Box + Pan
制造商 RCA
平台类型 Block 5D
阶段状态 Attached in Orbit
所有者/国家 SAMSO/US

大型星座

Loading constellations...